FENGYUN 1C DEB

Satellite information

Favourite Embed

Satellite Type and Status

DEBRISIN ORBIT

Key statistics

Satellite FENGYUN 1C DEB at a glance.

Uptime

9715

Days in orbit

Revolutions

≈ 13.7

Per day

Orbit

SSO

Sun Synchronous Orbit

Inclination

100.8

Latest

Satellite identification and parameters

Extended collection of information and parameters for FENGYUN 1C DEB.

Object identification

Identified? True

Debris? True

Object name: FENGYUN 1C DEB

International designator: 1999-025CXG

Object number (NORAD): 32315

Object ID (CCSDS): 32315

Country: PEOPLES REPUBLIC OF CHINA (PRC)

Current information (Y/N): Y

RCS size: SMALL

Orbital parameters

Period: 105.405 minutes

Inclination: 100.8052 deg

SMA: 7391.543 km

Apoapsis: 1182.611 km

Periapsis: 844.204 km

RAAN: 105.2905 deg

Eccentricy: 0.02289149

Argument of periapsis: 168.6 deg

Mean anomaly: 192.0449 deg

Mean motion: 13.66155502 rev/day

Mean motion (dot): 0.00000185 rev/day2

B* drag term: 0.00024184327 1/REarth

Two-line elements (TLE)

Creation date: Nov. 21, 2025, 3:06 a.m.

Reference frame: TEME

Reference center: EARTH

Epoch: Nov. 20, 2025, 4:04 p.m. UTC

TLE line 0: 0 FENGYUN 1C DEB

TLE line 1: 1 32315U 99025CXG 25324.66976477 .00000185 00000-0 24184-3 0 9993

TLE line 2: 2 32315 100.8052 105.2905 0228915 168.6000 192.0449 13.66155502607873

Live tracking on map

Real-time ground track for satellite FENGYUN 1C DEB.

In-orbit conjunctions

A list of the most updated potential collisions computed for object FENGYUN 1C DEB.

Target Orbit TCA Probability of collision Miss distance Type
COSMOS 374 DEB LEO 2024-06-19 09:24:45 0.0001662326 267.0 (m) DEBRIS

Associated space launch

Chinese polar orbiting meteorological satellite

FENGYUN 1C DEB was lifted into orbit during the mission ‘Long March 4B | Feng Yun 1C’, on board a Long March 4B space rocket.

The launch took place on May 10, 1999, 1:33 a.m. from Launch Complex 7.

For more information about the launch, click the button.

Launch to space Long March 4B | Feng Yun 1C
Long March 4B | Feng Yun 1C

Agency: N/A

Status: Launch Successful

Launch date: May 10, 1999, 1:33 a.m. UTC

Rocket: Long March 4B

Launch pad: Launch Complex 7

Location: Taiyuan Satellite Launch Center, People's Republic of China

...

Latest news about this satellite

There are no fresh news available about this satellite. Check back as we update our databases every day.


Newsletter sign-up

Weekly statistics, charts and insights to help you stay on top of the space industry.